Location: Coed Ely
(51.5661°N, 3.4150°W)
Time: 01:30:07
(UTC+00:00)

CSL-04 Rocket - Pass Details

Date: 28 January 2021
Orbit: 806 x 860 km, 98.9° (Epoch: 28 February)

Event Time Altitude Azimuth Distance (km) Brightness Sun altitude
Rises 17:58:25 0° 129° (SE) 3,387 6.5 -9.7°
Reaches altitude 10° 18:00:59 10° 119° (ESE) 2,464 5.7 -10.1°
Maximum altitude 18:05:43 31° 59° (ENE) 1,460 4.4 -10.8°
Drops below altitude 10° 18:10:30 10° 360° (N) 2,501 6.0 -11.5°
Sets 18:13:08 0° 350° (N) 3,446 6.8 -11.9°
